Waarnemingen

Advertentie
Mijn weer
Malung A, Zweden (2407): temperatuur & dauwpunt: 11.02.2018 20:00:00 - 17.02.2018 20:00:00 (CET)Malung A, Zweden (2407): windsnelheid & windstoten: 11.02.2018 20:00:00 - 17.02.2018 20:00:00 (CET)Malung A, Zweden (2407): windrichting: 11.02.2018 20:00:00 - 17.02.2018 20:00:00 (CET)Malung A, Zweden (2407): luchtdruk: 11.02.2018 20:00:00 - 17.02.2018 20:00:00 (CET)Malung A, Zweden (2407): zicht: 11.02.2018 20:00:00 - 17.02.2018 20:00:00 (CET)Malung A, Zweden (2407): neerslag: 11.02.2018 20:00:00 - 17.02.2018 20:00:00 (CET)
Datum & Tijd tt [°C] td [°C] ff [km/u] ff [kn] fx [km/u] fx [kn] dd ppp [hPa] vv [km] rr [mm]
17.02.2018 20:00:00 -3,9 -5,3 6 3 - - W 1023,1 38 0,0
17.02.2018 19:00:00 -7,5 -9,1 4 2 9 5 WZW 1023,2 26 0,0
17.02.2018 18:00:00 -3,5 -5,2 4 2 10 5 WZW 1022,7 40 0,0
17.02.2018 17:00:00 -1,3 -4,5 4 2 11 6 ZW 1022,0 45 0,0
17.02.2018 16:00:00 -1,1 -4,8 4 2 10 6 WZW 1022,1 48 0,0
17.02.2018 15:00:00 -0,9 -5,5 6 3 14 8 W 1022,1 50 0,0
17.02.2018 14:00:00 -0,5 -4,9 8 4 16 8 W 1022,2 36 0,0
17.02.2018 13:00:00 -0,7 -4,9 8 4 16 8 WZW 1022,4 33 0,0
17.02.2018 12:00:00 -1,1 -4,3 4 2 8 5 NW 1022,4 21 0,0
17.02.2018 11:00:00 -1,6 -3,5 1 1 3 2 O 1022,4 9 0,0
17.02.2018 10:00:00 -2,7 -3,8 1 0 - - ZZO 1022,5 8 0,0
17.02.2018 09:00:00 -3,7 -4,2 - - - - - 1022,3 6 0,0
17.02.2018 08:00:00 -3,8 -4,3 3 2 6 3 Z 1021,8 5 0,0
17.02.2018 07:00:00 -3,5 -4,2 2 1 5 3 ZZW 1021,7 9 0,0
17.02.2018 06:00:00 -3,4 -4,1 1 1 4 2 ZO 1021,6 10 0,0
17.02.2018 05:00:00 -3,1 -3,8 2 1 3 2 ZZO 1021,4 11 0,0
17.02.2018 04:00:00 -3,3 -4,0 2 1 6 3 NNW 1021,4 11 0,1
17.02.2018 03:00:00 -3,3 -4,0 1 1 4 2 NW 1021,3 12 0,0
17.02.2018 02:00:00 -3,1 -3,8 1 1 3 2 O 1021,0 13 0,0
17.02.2018 01:00:00 -3,1 -3,8 2 1 5 3 O 1020,6 9 0,1
17.02.2018 00:00:00 -3,4 -3,9 1 1 4 2 ZO 1020,4 10 0,0
16.02.2018 23:00:00 -3,3 -4,0 1 1 3 2 O 1019,9 12 0,1
16.02.2018 22:00:00 -3,3 -3,8 1 1 4 2 WNW 1019,3 11 0,1
16.02.2018 21:00:00 -3,0 -3,7 1 1 4 2 W 1019,0 14 0,1
16.02.2018 20:00:00 -2,5 -3,3 3 2 9 5 ONO 1018,5 13 0,0
16.02.2018 19:00:00 -2,2 -3,3 3 2 7 4 OZO 1017,9 23 0,0
16.02.2018 18:00:00 -2,1 -3,8 4 2 7 4 N 1017,4 27 0,1
16.02.2018 17:00:00 -1,5 -4,0 5 3 10 6 ZO 1016,5 39 0,1
16.02.2018 16:00:00 -1,2 -4,0 4 2 11 6 OZO 1016,2 33 0,1
16.02.2018 15:00:00 -1,2 -4,5 4 2 16 9 O 1016,2 36 0,0
16.02.2018 14:00:00 -1,3 -4,1 9 5 17 9 O 1015,7 18 0,1
16.02.2018 13:00:00 -1,6 -3,9 8 4 19 10 OZO 1015,4 7 0,0
16.02.2018 12:00:00 -1,8 -3,7 8 5 14 8 O 1015,4 6 0,1
16.02.2018 11:00:00 -2,1 -3,8 8 5 - - O 1015,0 7 0,0
16.02.2018 10:00:00 -2,4 -3,7 - - - - - 1014,8 2,8 0,1
16.02.2018 09:00:00 -2,9 -3,9 5 3 12 7 O 1014,4 1,8 0,2
16.02.2018 08:00:00 -2,8 -4,1 6 3 13 7 O 1014,1 9 0,0
16.02.2018 07:00:00 -2,9 -4,0 7 4 16 8 OZO 1014,0 3,4 0,2
16.02.2018 06:00:00 -2,7 -4,3 9 5 18 10 OZO 1014,0 16 0,1
16.02.2018 05:00:00 -2,7 -4,4 5 3 16 8 OZO 1014,2 12 0,0
16.02.2018 04:00:00 -2,7 -4,4 8 4 14 8 ZO 1014,0 7 0,2
16.02.2018 03:00:00 -2,6 -4,8 6 3 21 11 ZO 1014,3 28 0,0
16.02.2018 02:00:00 -2,4 -4,9 11 6 25 14 ZO 1014,3 30 0,0
16.02.2018 01:00:00 -2,3 -4,6 12 7 - - ZO 1014,6 23 0,0
16.02.2018 00:00:00 -2,2 -4,5 - - - - - 1014,7 25 0,0
15.02.2018 23:00:00 -2,1 -4,4 - - - - - 1015,0 40 0,0
15.02.2018 22:00:00 -2,2 -4,4 - - - - - 1015,4 47 0,0
15.02.2018 21:00:00 -2,2 -4,2 12 6 23 12 ZZO 1015,6 48 0,0
15.02.2018 20:00:00 -2,3 -4,5 12 7 24 13 ZZO 1015,8 46 0,0
15.02.2018 19:00:00 -2,4 -4,6 13 7 22 12 ZO 1016,1 48 0,0
15.02.2018 18:00:00 -2,4 -4,6 13 7 29 15 ZZO 1016,6 47 0,0
15.02.2018 17:00:00 -2,7 -4,7 17 9 30 16 ZO 1016,7 45 0,0
15.02.2018 16:00:00 -3,1 -5,4 14 8 25 14 ZO 1017,1 50 0,0
15.02.2018 15:00:00 -3,1 -5,6 11 6 - - ZZO 1017,6 50 0,0
15.02.2018 14:00:00 -3,2 -5,7 - - - - - 1018,2 50 0,0
15.02.2018 13:00:00 -3,1 -6,1 - - - - - 1018,4 50 0,0
15.02.2018 12:00:00 -3,0 -5,8 - - - - - 1018,8 50 0,0
15.02.2018 11:00:00 -2,7 -5,3 - - - - - 1019,2 50 0,0
15.02.2018 10:00:00 -2,6 -5,2 21 11 40 22 ZZO 1019,4 50 0,0
15.02.2018 09:00:00 -2,9 -5,1 19 10 33 18 ZZO 1019,6 44 0,0
15.02.2018 08:00:00 -3,4 -4,7 14 8 31 17 ZZO 1020,0 24 0,0
15.02.2018 07:00:00 -3,2 -4,9 18 10 37 20 ZZO 1019,9 39 0,0
15.02.2018 06:00:00 -2,9 -4,8 17 9 35 19 Z 1020,0 31 0,0
15.02.2018 05:00:00 -2,4 -4,4 16 8 - - Z 1020,0 31 0,0
15.02.2018 04:00:00 -2,2 -4,2 - - - - - 1020,1 28 0,0
15.02.2018 03:00:00 -2,1 -4,3 - - - - - 1020,3 35 0,0
15.02.2018 02:00:00 -1,8 -3,8 - - - - - 1020,4 26 0,0
15.02.2018 01:00:00 -1,7 -4,0 - - - - - 1020,3 38 0,0
15.02.2018 00:00:00 -1,6 -3,9 - - 34 18 - 1020,3 36 0,0
14.02.2018 23:00:00 -1,5 -3,8 - - - - - 1020,3 41 0,0
14.02.2018 22:00:00 -2,2 -3,5 - - - - - 1020,6 16 0,0
14.02.2018 21:00:00 -2,5 -4,5 8 4 21 12 ZZO 1020,8 23 0,0
14.02.2018 20:00:00 -1,5 -4,2 14 8 - - Z 1020,8 29 0,2
14.02.2018 19:00:00 -2,0 -4,0 11 6 21 11 Z 1020,7 18 0,1
14.02.2018 18:00:00 -1,2 -4,0 14 8 23 12 Z 1020,4 31 0,0
14.02.2018 17:00:00 -1,0 -3,5 13 7 28 15 Z 1020,4 26 0,1
14.02.2018 16:00:00 -0,8 -3,2 10 6 25 13 Z 1020,1 18 0,0
14.02.2018 15:00:00 -0,6 -3,0 13 7 22 12 Z 1019,7 19 0,0
14.02.2018 14:00:00 -0,8 -3,0 12 6 24 13 Z 1019,4 20 0,1
14.02.2018 13:00:00 -0,7 -3,1 16 9 31 17 ZZW 1019,3 17 0,0
14.02.2018 12:00:00 -0,6 -2,3 16 9 28 15 Z 1018,8 22 0,0
14.02.2018 11:00:00 -0,9 -2,4 11 6 29 16 Z 1018,7 9 0,0
14.02.2018 10:00:00 -1,0 -2,8 8 5 29 16 Z 1017,9 35 0,0
14.02.2018 09:00:00 -0,8 -2,5 17 9 31 17 Z 1017,0 39 0,0
14.02.2018 08:00:00 -1,2 -2,9 16 9 31 17 Z 1015,8 44 0,0
14.02.2018 07:00:00 -1,4 -3,0 13 7 30 16 Z 1015,6 50 0,0
14.02.2018 06:00:00 -0,9 -2,5 19 11 - - Z 1015,0 45 0,0
14.02.2018 05:00:00 -1,6 -2,3 - - - - - 1014,5 36 0,0
14.02.2018 04:00:00 -2,2 -2,9 11 6 22 12 Z 1014,3 26 0,0
14.02.2018 03:00:00 -2,9 -3,9 11 6 24 13 Z 1014,0 25 0,0
14.02.2018 02:00:00 -3,3 -3,8 14 7 18 10 ZZO 1013,6 4,7 0,0
14.02.2018 01:00:00 -4,1 -4,9 8 4 13 7 Z 1013,4 7 0,0
14.02.2018 00:00:00 -7,1 -7,8 7 4 10 6 Z 1013,4 42 0,0
13.02.2018 23:00:00 -7,6 -8,4 2 1 6 3 W 1013,1 27 0,0
13.02.2018 22:00:00 -4,9 -5,9 3 2 16 9 ZZW 1012,7 50 0,0
13.02.2018 21:00:00 -6,1 -6,9 3 2 6 3 WNW 1012,4 50 0,0
13.02.2018 20:00:00 -6,5 -7,2 3 2 9 5 ZZW 1011,6 50 0,0
13.02.2018 19:00:00 -4,8 -6,0 4 2 16 9 ZZW 1011,0 50 0,0
13.02.2018 18:00:00 -4,0 -5,3 8 4 17 9 Z 1010,4 50 0,0
13.02.2018 17:00:00 -5,8 -6,9 - - - - - 1009,7 50 0,0
13.02.2018 16:00:00 -3,8 -5,2 7 4 17 9 ZZW 1008,6 50 0,0
13.02.2018 15:00:00 -2,9 -4,8 9 5 17 9 ZZW 1007,6 50 0,0
13.02.2018 14:00:00 -2,3 -4,3 9 5 15 8 ZW 1007,3 50 0,0
13.02.2018 13:00:00 -3,0 -5,5 3 2 5 3 N 1007,1 47 0,0
13.02.2018 12:00:00 -1,4 -5,3 0 0 4 2 O 1006,4 39 0,0
13.02.2018 11:00:00 -3,3 -5,8 1 1 - - N 1005,9 40 0,0
13.02.2018 10:00:00 -6,2 -7,4 - - - - - 1005,4 4,2 0,0
13.02.2018 09:00:00 -8,1 -8,9 4 2 13 7 Z 1004,7 11 0,0
13.02.2018 08:00:00 -4,6 -5,4 9 5 14 8 WNW 1003,4 50 0,0
13.02.2018 07:00:00 -6,1 -6,8 1 1 8 4 NNO 1002,7 42 0,0
13.02.2018 06:00:00 -5,1 -6,1 5 3 16 9 NNW 1001,8 50 0,0
13.02.2018 05:00:00 -2,8 -3,6 7 4 15 8 NW 1001,1 50 0,0
13.02.2018 04:00:00 -2,6 -3,3 9 5 - - WNW 1000,3 50 0,0
13.02.2018 03:00:00 -2,4 -3,0 - - - - - 999,5 14 0,0
13.02.2018 02:00:00 -2,2 -2,6 - - - - - 998,9 6 0,2
13.02.2018 01:00:00 -1,8 -2,1 8 4 14 7 WNW 998,3 5 0,0
13.02.2018 00:00:00 -1,5 -1,8 6 3 10 5 NW 997,6 3,9 0,1
12.02.2018 23:00:00 -1,3 -1,4 4 2 6 3 NW 997,1 4,1 0,2
12.02.2018 22:00:00 -1,3 -1,4 5 3 - - NW 996,7 1,3 0,1
12.02.2018 21:00:00 -1,5 -1,8 - - - - - 996,4 2,0 0,2
12.02.2018 20:00:00 -1,7 -2,0 - - - - - 995,9 3,7 0,0
12.02.2018 19:00:00 -1,6 -1,9 6 3 16 9 NO 995,6 2,5 0,3
12.02.2018 18:00:00 -1,6 -1,9 8 5 21 12 NO 995,1 1,5 0,4
12.02.2018 17:00:00 -1,7 -2,0 10 5 - - NO 995,0 0,9 0,8
12.02.2018 16:00:00 -1,8 -2,2 - - - - - 994,8 0,6 0,7
12.02.2018 15:00:00 -1,7 -2,4 13 7 24 13 NO 994,7 5 0,1
12.02.2018 14:00:00 -1,6 -2,6 9 5 - - NO 994,7 19 0,0
12.02.2018 13:00:00 -2,3 -3,3 8 4 - - NO 995,3 19 0,0
12.02.2018 12:00:00 -2,6 -3,7 - - - - - 995,5 11 0,0
12.02.2018 11:00:00 -3,0 -4,1 - - 13 7 - 995,8 4,4 0,2
12.02.2018 10:00:00 -3,3 -4,4 5 3 12 6 NO 995,9 6 0,1
12.02.2018 09:00:00 -3,4 -4,7 3 2 21 12 ONO 995,9 8 0,1
12.02.2018 08:00:00 -3,4 -4,7 8 5 18 10 O 995,9 9 0,6
12.02.2018 07:00:00 -3,8 -4,8 9 5 23 12 O 996,1 1,6 0,5
12.02.2018 06:00:00 -4,1 -5,2 8 5 22 12 O 996,5 21 0,6
12.02.2018 05:00:00 -4,4 -5,4 5 3 21 11 ONO 996,8 1,9 0,4
12.02.2018 04:00:00 -4,5 -5,5 9 5 21 12 ONO 997,1 1,8 0,5
12.02.2018 03:00:00 -4,6 -5,6 12 6 25 13 ONO 997,8 1,1 0,5
12.02.2018 02:00:00 -4,4 -5,8 11 6 25 14 O 998,3 1,9 0,2
12.02.2018 01:00:00 -4,1 -6,4 12 6 26 14 O 998,9 29 0,1
12.02.2018 00:00:00 -4,2 -6,0 14 8 29 16 OZO 999,5 32 0,1
11.02.2018 23:00:00 -4,2 -5,9 15 8 34 18 OZO 999,9 10 0,1
11.02.2018 22:00:00 -4,2 -5,9 16 9 29 16 OZO 1000,5 10 0,0
11.02.2018 21:00:00 -4,1 -5,9 15 8 32 18 OZO 1000,8 32 0,0
11.02.2018 20:00:00 -4,1 -6,1 12 6 30 16 OZO 1001,2 34 0,0

tt = temperatuur
td = dauwpunt
ff = windsnelheid
fx = windstoten
dd = windrichting
ppp = luchtdruk
vv = zicht
rr = neerslag

Weerstations in de omgeving